N6DQX Weather Reports


Display with metric or nautical units.
time (UTC)temp
F
wind
direction
speed
MPH
gust
MPH
rain 1hr
in
rain 24hr
in
rain mn
in
humidity
%
barometer
mb
20200531015003 57 293 9.0 15.0 0.00 0.00 0.44 62 1008.0
20200531014503 58 280 7.0 16.0 0.00 0.00 0.44 61 1007.8
20200531014003 58 284 6.0 14.0 0.00 0.00 0.44 61 1007.5
20200531013503 59 285 10.0 18.0 0.00 0.00 0.44 61 1007.3
20200531013003 59 280 6.0 14.0 0.00 0.00 0.44 61 1007.1
20200531012503 59 304 5.0 15.0 0.00 0.00 0.44 63 1006.9
20200531012003 59 299 10.0 17.0 0.00 0.00 0.44 62 1006.7
20200531011502 59 262 10.0 16.0 0.00 0.00 0.44 61 1006.5
20200531011003 59 273 9.0 15.0 0.00 0.00 0.44 62 1006.5
20200531010503 59 257 10.0 16.0 0.00 0.00 0.44 63 1006.4
20200531010003 59 253 12.0 20.0 0.00 0.00 0.44 63 1006.4
20200531005503 59 279 9.0 20.0 0.00 0.00 0.44 63 1006.3
20200531005003 59 281 13.0 20.0 0.00 0.00 0.44 63 1006.2
20200531004503 59 265 12.0 21.0 0.00 0.00 0.44 64 1006.3
20200531004003 59 253 11.0 22.0 0.00 0.00 0.44 63 1006.3
20200531003503 59 266 10.0 26.0 0.00 0.00 0.44 62 1006.1
20200531003003 60 265 15.0 25.0 0.00 0.00 0.44 62 1006.1
20200531002503 60 258 13.0 25.0 0.00 0.00 0.44 62 1006.1
20200531002003 60 247 13.0 26.0 0.00 0.00 0.44 61 1006.1
20200531001503 61 277 17.0 25.0 0.00 0.00 0.44 60 1006.1
20200531001003 61 258 12.0 23.0 0.00 0.00 0.44 61 1006.2
20200531000503 61 272 9.0 18.0 0.00 0.00 0.44 60 1006.1
20200531000003 62 261 10.0 22.0 0.00 0.00 0.44 61 1006.1
20200530235502 63 258 12.0 23.0 0.00 0.00 0.44 60 1006.3
20200530235002 63 245 8.0 21.0 0.00 0.00 0.44 62 1006.3
20200530234503 63 276 9.0 20.0 0.00 0.00 0.44 62 1006.1
20200530234003 62 259 10.0 20.0 0.00 0.00 0.44 61 1006.0
20200530233503 62 253 16.0 26.0 0.00 0.00 0.44 62 1005.8
20200530233003 61 273 15.0 26.0 0.00 0.00 0.44 65 1006.0
20200530232503 60 270 12.0 22.0 0.00 0.00 0.44 67 1006.1
20200530232003 60 263 10.0 21.0 0.00 0.00 0.44 67 1005.6
20200530231504 59 227 9.0 22.0 0.00 0.00 0.44 70 1005.6
20200530231003 58 251 14.0 24.0 0.00 0.00 0.44 70 1005.5
20200530230503 57 251 15.0 24.0 0.00 0.00 0.44 75 1005.3
20200530230003 56 247 15.0 23.0 0.00 0.00 0.44 75 1005.3
20200530225503 55 259 14.0 24.0 0.00 0.00 0.44 76 1005.2
20200530225003 55 266 12.0 22.0 0.00 0.00 0.44 77 1004.8
20200530224504 55 265 12.0 23.0 0.00 0.00 0.44 79 1004.6
20200530224002 55 248 7.0 24.0 0.00 0.00 0.44 81 1004.5
20200530223503 54 266 6.0 20.0 0.00 0.00 0.44 83 1004.0
20200530223003 54 265 13.0 26.0 0.02 0.00 0.44 83 1003.8
20200530222503 54 267 7.0 17.0 0.04 0.00 0.44 84 1003.7
20200530222003 53 238 5.0 13.0 0.14 0.00 0.44 87 1003.5
20200530221504 53 251 9.0 20.0 0.38 0.00 0.44 88 1003.3
20200530221003 53 236 10.0 20.0 0.44 0.00 0.44 88 1003.3